[[{"header":{"parameterUnit":"m.s-1","parameterCategory":1,"la1":30.2991,"la2":30.254,"lo1":-89.0895,"lo2":-89.0444,"dy":0.0017,"dx":0.0017,"nx":28,"ny":28,"refTime":"2025-07-02T21:00:00:Z","depth":0,"parameterNumber":2,"parameterNumberName":"U-component_of_WINDS"},"data":[0,0,0,0,0,0,0,0,0,0,0,0,0,0,0,0,0,0,0,0,0,0,0,0,0,0,0,0,0,0,0,0,0,0,0,0,0,0,0,0,0,0,0,0,0,0,0,0,0,0,0,0,0,0,0,0,0,0,-0.9698,-0.9697,0,-0.9565,-0.9563,-0.9562,-0.9439,-0.9438,-0.9436,-0.9435,-0.9295,-0.9293,-0.9291,0,0,0,0,0,0,0,0,0,0,0,0,0,-0.9842,-0.984,-0.9698,-0.9697,-0.9695,-0.9565,-0.9563,-0.9561,-0.944,-0.9438,-0.9436,-0.9434,-0.9296,-0.9293,-0.929,0,0,0,0,0,0,0,0,0,0,0,0,0,-0.9751,-0.984,-0.9698,-0.9618,-0.961,-0.9566,-0.9563,-0.9561,-0.944,-0.9438,-0.9435,-0.9433,-0.9297,-0.9293,-0.929,-0.9313,0,0,-0.9279,-0.9278,0,0,0,0,0,0,0,0,-0.9757,-0.9746,-0.9632,-0.9624,-0.9614,-0.9516,-0.9563,-0.9478,-0.944,-0.9504,-0.9435,-0.9432,-0.937,-0.9361,-0.934,-0.9306,-0.93,-0.9279,-0.9277,-0.9275,-0.9274,0,0,0,0,0,0,0,-0.9763,-0.9751,-0.9645,-0.963,-0.962,-0.9588,-0.9572,-0.9546,-0.9451,-0.9499,-0.9489,-0.9476,-0.9365,-0.9344,-0.9336,-0.9298,-0.9279,-0.9276,-0.9274,-0.9272,-0.9274,-0.9276,0,0,0,0,0,0,-0.9782,-0.9757,-0.9649,-0.9641,-0.9682,-0.9587,-0.957,-0.955,-0.9451,-0.9434,-0.9478,-0.947,-0.9351,-0.9341,-0.9331,-0.935,-0.9275,-0.9272,-0.927,-0.9272,-0.9274,-0.9276,0,0,0,0,0,0,-0.9786,-0.9774,-0.9655,-0.9697,-0.9679,-0.9587,-0.9566,-0.9549,-0.9528,-0.9435,-0.9418,-0.9474,-0.9349,-0.9336,-0.9318,-0.9343,-0.9271,-0.9267,-0.9269,-0.9272,-0.9275,-0.9389,0,0,0,0,0,0,-0.9791,-0.9776,-0.9785,-0.9698,-0.9677,-0.9646,-0.9567,-0.9548,-0.9522,-0.9512,-0.9427,-0.9411,-0.9346,-0.9324,-0.9315,-0.9337,-0.9265,-0.9266,-0.927,-0.9274,-0.9383,-0.9396,-0.9407,0,0,0,0,0,-0.9796,-0.9822,-0.9786,-0.9774,-0.9687,-0.9648,-0.9636,-0.9562,-0.9525,-0.9532,-0.9473,-0.9414,-0.9342,-0.9323,-0.9312,-0.9334,-0.9264,-0.9269,-0.9274,-0.9377,-0.9393,-0.9407,0,0,0,0,0,0,-0.9914,-0.9809,-0.9768,-0.9767,-0.9717,-0.9627,-0.9634,-0.9581,-0.954,-0.9532,-0.944,-0.9422,-0.9414,-0.9372,-0.9353,-0.9349,-0.9295,-0.9298,-0.9377,-0.9392,-0.9404,-0.9414,-0.9262,0,0,0,0,0,-0.994,-0.9918,-0.9827,-0.9835,-0.9812,-0.9728,-0.9708,-0.9655,-0.9599,-0.9578,-0.9517,-0.9464,-0.9429,-0.9408,-0.9371,-0.9376,-0.9354,-0.9385,-0.9397,-0.9408,-0.9411,-0.9408,-0.942,-0.9292,-0.9292,-0.9292,0,0,-0.9993,-0.9933,-0.9925,-0.9857,-0.9812,-0.979,-0.9711,-0.9691,-0.9673,-0.9574,-0.9553,-0.9507,-0.9442,-0.9435,-0.9429,-0.9399,-0.9441,-0.9414,-0.9423,-0.942,-0.9414,-0.9426,-0.9437,-0.9295,-0.9295,-0.9294,0,0,-1.0078,-1.0031,-1.0032,-0.9988,-0.9922,-0.9866,-0.9866,-0.9783,-0.9749,-0.9727,-0.9651,-0.9628,-0.9571,-0.9527,-0.9497,-0.9564,-0.9507,-0.9554,-0.9618,-0.9616,-0.9626,-0.9635,-0.9657,-0.9666,-0.9558,-0.9558,-0.9558,0,-1.0152,-1.0117,-1.0038,-1.0023,-0.9995,-0.9904,-0.9903,-0.9864,-0.9789,-0.9771,-0.9739,-0.9664,-0.9613,-0.9594,-0.961,-0.959,-0.9585,-0.9564,-0.9631,-0.9639,-0.9646,-0.9666,-0.9675,-0.9564,-0.9564,-0.9563,-0.9562,0,-1.021,-1.0187,-1.0195,-1.0126,-1.0098,-1.009,-1.0008,-0.9989,-0.9939,-0.9885,-0.9863,-0.9799,-0.9747,-0.9738,-0.9689,-0.9711,-0.9695,-0.9649,-0.9592,-0.9665,-0.9683,-0.969,-0.9573,-0.9571,-0.9569,-0.9568,0,0,-1.0366,-1.0253,-1.0257,-1.0224,-1.0143,-1.0123,-1.0109,-1.0059,-1.0044,-0.9994,-0.998,-0.9933,-0.9889,-0.9855,-0.9799,-0.9798,-0.9853,-0.9751,-0.9748,-0.9771,-0.9872,-0.9907,-0.9917,-0.9815,-0.9816,-0.9817,-0.9877,0,-1.0437,-1.041,-1.0338,-1.0332,-1.0309,-1.0222,-1.021,-1.0158,-1.0108,-1.0079,-1.0021,-0.9989,-0.9935,-0.9913,-0.9908,-0.9848,-0.9872,-0.9842,-0.9799,-0.9798,-0.9817,-0.9926,-0.9963,-1.0023,-0.9883,-0.9884,-0.9885,0,-1.0517,-1.0474,-1.0466,-1.0385,-1.0372,-1.0363,-1.031,-1.0285,-1.0223,-1.0186,-1.0148,-1.0086,-1.0065,-1.0014,-0.9982,-0.9964,-0.9941,-0.9909,-0.9909,-0.9901,-0.9846,-0.9921,-1.004,-1.0049,-0.9896,-0.9895,-0.9894,0,-1.063,-1.057,-1.0557,-1.0531,-1.0437,-1.0432,-1.0392,-1.0329,-1.0302,-1.0256,-1.0237,-1.0189,-1.0162,-1.0125,-1.005,-1.002,-1.0026,-0.9969,-0.9993,-0.9995,-0.9998,-0.9999,-1.0115,-0.9986,-0.9986,-0.9986,-0.9986,0,-1.0717,-1.0715,-1.0606,-1.0598,-1.0593,-1.0509,-1.0506,-1.0457,-1.0401,-1.0381,-1.0302,-1.0284,-1.0188,-1.0158,-1.0099,-1.0081,-1.007,-1.0038,-1.0022,-1.0044,-1.0048,-1.0028,-1.0021,-0.9988,-0.9987,-0.9987,-0.9987,0,-1.0842,-1.077,-1.075,-1.0662,-1.064,-1.0639,-1.0563,-1.0551,-1.0495,-1.047,-1.0459,-1.0371,-1.0332,-1.0254,-1.0193,-1.0153,-1.0148,-1.0121,-1.0169,-1.0159,-1.0187,-1.0185,-1.0294,-1.0303,-1.017,-1.0171,-1.0173,0,-1.0902,-1.0899,-1.0811,-1.0792,-1.0755,-1.0726,-1.0699,-1.0616,-1.0591,-1.0519,-1.0515,-1.047,-1.0429,-1.037,-1.03,-1.0252,-1.0222,-1.0263,-1.0214,-1.0236,-1.0221,-1.0222,-1.022,-1.0274,-1.0276,-1.0278,-1.0279,0,-1.1015,-1.0979,-1.0944,-1.0896,-1.0866,-1.0824,-1.0777,-1.0766,-1.0671,-1.0646,-1.0606,-1.0575,-1.0512,-1.0467,-1.0409,-1.0365,-1.0306,-1.0295,-1.0298,-1.032,-1.0348,-1.0331,-1.0198,-1.0293,-1.0291,-1.029,-1.029,-1.0289,-1.1108,-1.11,-1.1037,-1.1,-1.0956,-1.0914,-1.0898,-1.084,-1.0806,-1.0749,-1.0702,-1.0665,-1.06,-1.0516,-1.0476,-1.0445,-1.0416,-1.0421,-1.0421,-1.0424,-1.0432,-1.0354,-1.0434,-1.0433,-1.0433,-1.0432,-1.0432,0,-1.1216,-1.1171,-1.1137,-1.1075,-1.1045,-1.0993,-1.0939,-1.0917,-1.0886,-1.0832,-1.0793,-1.0745,-1.0701,-1.0627,-1.0576,-1.0565,-1.0536,-1.0554,-1.0553,-1.0544,-1.0461,-1.0463,-1.0578,-1.0578,-1.0578,-1.0578,-1.0578,-1.0578,-1.1268,-1.1252,-1.1209,-1.1169,-1.1123,-1.1087,-1.106,-1.102,-1.0976,-1.0927,-1.089,-1.0843,-1.078,-1.0723,-1.0679,-1.0658,-1.0643,-1.0669,-1.064,-1.0564,-1.055,-1.0537,-1.0538,-1.0667,-1.0667,-1.0724,-1.0725,-1.0725]},{"header":{"parameterUnit":"m.s-1","parameterCategory":1,"la1":30.2991,"la2":30.254,"lo1":-89.0895,"lo2":-89.0444,"dy":0.0017,"dx":0.0017,"nx":28,"ny":28,"refTime":"2025-07-02T21:00:00:Z","depth":0,"parameterNumber":3,"parameterNumberName":"V-component_of_WINDS"},"data":[0,0,0,0,0,0,0,0,0,0,0,0,0,0,0,0,0,0,0,0,0,0,0,0,0,0,0,0,0,0,0,0,0,0,0,0,0,0,0,0,0,0,0,0,0,0,0,0,0,0,0,0,0,0,0,0,0,0,-2.1704,-2.1704,0,-2.1721,-2.1721,-2.1721,-2.1695,-2.1694,-2.1693,-2.1692,-2.1709,-2.171,-2.1711,0,0,0,0,0,0,0,0,0,0,0,0,0,-2.1647,-2.1648,-2.1704,-2.1704,-2.1704,-2.1721,-2.1721,-2.1721,-2.1695,-2.1694,-2.1693,-2.1692,-2.1708,-2.171,-2.1711,0,0,0,0,0,0,0,0,0,0,0,0,0,-2.1668,-2.1648,-2.1704,-2.1693,-2.1692,-2.1721,-2.1721,-2.1722,-2.1695,-2.1694,-2.1693,-2.1691,-2.1708,-2.171,-2.1712,-2.1751,0,0,-2.1718,-2.1718,0,0,0,0,0,0,0,0,-2.1667,-2.1671,-2.1695,-2.1694,-2.1693,-2.1704,-2.1707,-2.1731,-2.1696,-2.1694,-2.1692,-2.1691,-2.1708,-2.171,-2.1716,-2.1752,-2.1753,-2.1718,-2.1719,-2.172,-2.172,0,0,0,0,0,0,0,-2.1666,-2.167,-2.1711,-2.1695,-2.1694,-2.1687,-2.1689,-2.1712,-2.1709,-2.1694,-2.1692,-2.1695,-2.1708,-2.1715,-2.1717,-2.1753,-2.1718,-2.1719,-2.1721,-2.1721,-2.182,-2.1821,0,0,0,0,0,0,-2.1666,-2.1669,-2.171,-2.1711,-2.1677,-2.1689,-2.1691,-2.1702,-2.1708,-2.1708,-2.1696,-2.1693,-2.1712,-2.1714,-2.1717,-2.1762,-2.172,-2.1722,-2.1723,-2.1819,-2.182,-2.1822,0,0,0,0,0,0,-2.1665,-2.167,-2.1709,-2.1689,-2.1694,-2.1692,-2.1704,-2.1703,-2.171,-2.171,-2.1709,-2.1704,-2.1711,-2.1714,-2.1743,-2.1763,-2.1722,-2.1724,-2.1817,-2.1819,-2.1821,-2.1854,0,0,0,0,0,0,-2.1663,-2.1669,-2.1685,-2.169,-2.1695,-2.1735,-2.1706,-2.1705,-2.1714,-2.1711,-2.1717,-2.1716,-2.171,-2.174,-2.1745,-2.1765,-2.1726,-2.1815,-2.1818,-2.182,-2.1851,-2.1857,-2.1863,0,0,0,0,0,-2.1661,-2.1694,-2.1686,-2.1691,-2.1714,-2.1737,-2.1739,-2.1732,-2.1715,-2.173,-2.173,-2.1716,-2.176,-2.1743,-2.1748,-2.1769,-2.1814,-2.1817,-2.182,-2.1849,-2.1856,-2.1862,0,0,0,0,0,0,-2.1691,-2.1694,-2.1686,-2.1721,-2.1729,-2.1732,-2.1751,-2.174,-2.1752,-2.1749,-2.1739,-2.174,-2.177,-2.1773,-2.1754,-2.1807,-2.1784,-2.1788,-2.1804,-2.1811,-2.1816,-2.1815,-2.1727,0,0,0,0,0,-2.1702,-2.172,-2.1722,-2.1753,-2.1757,-2.1753,-2.1763,-2.1756,-2.1764,-2.1767,-2.1768,-2.1776,-2.1791,-2.1801,-2.1816,-2.1852,-2.1852,-2.1869,-2.1874,-2.1879,-2.1882,-2.19,-2.1907,-2.1833,-2.1833,-2.1833,0,0,-2.1724,-2.1728,-2.174,-2.1759,-2.1764,-2.1782,-2.1756,-2.1777,-2.179,-2.177,-2.1796,-2.1798,-2.1805,-2.1837,-2.1852,-2.184,-2.1903,-2.1883,-2.1887,-2.1888,-2.1904,-2.1911,-2.1918,-2.1835,-2.1835,-2.1834,0,0,-2.1774,-2.178,-2.1805,-2.1811,-2.1819,-2.1816,-2.1822,-2.1827,-2.1827,-2.1854,-2.1838,-2.1854,-2.1881,-2.1886,-2.1893,-2.1944,-2.1931,-2.1948,-2.1977,-2.1995,-2.2,-2.2005,-2.2022,-2.2028,-2.1952,-2.1952,-2.1952,0,-2.1801,-2.1828,-2.182,-2.1841,-2.1849,-2.1832,-2.1857,-2.1863,-2.1875,-2.188,-2.1868,-2.19,-2.1904,-2.1937,-2.1949,-2.1955,-2.1961,-2.1947,-2.2,-2.2005,-2.201,-2.2026,-2.2032,-2.1954,-2.1954,-2.1954,-2.1954,0,-2.1859,-2.1878,-2.1898,-2.191,-2.192,-2.1944,-2.1938,-2.195,-2.1942,-2.194,-2.1967,-2.1971,-2.1985,-2.1992,-2.1985,-2.2023,-2.2016,-2.2002,-2.1979,-2.2019,-2.2034,-2.204,-2.1957,-2.1957,-2.1956,-2.1955,0,0,-2.1929,-2.1935,-2.1942,-2.1947,-2.1954,-2.1968,-2.1991,-2.2004,-2.2013,-2.2023,-2.204,-2.2063,-2.2049,-2.2057,-2.205,-2.2066,-2.2104,-2.205,-2.205,-2.2058,-2.2144,-2.2154,-2.2161,-2.2096,-2.2097,-2.2098,-2.2143,0,-2.1977,-2.2015,-2.2008,-2.2044,-2.2061,-2.2044,-2.2063,-2.2069,-2.2068,-2.2082,-2.208,-2.2096,-2.2078,-2.2082,-2.2097,-2.2096,-2.2121,-2.2093,-2.2111,-2.2111,-2.2108,-2.2169,-2.2179,-2.2222,-2.2149,-2.215,-2.2151,0,-2.2038,-2.2049,-2.2087,-2.2091,-2.2097,-2.2115,-2.2126,-2.2139,-2.2146,-2.2144,-2.2151,-2.2142,-2.2162,-2.214,-2.2168,-2.2149,-2.2156,-2.2156,-2.2158,-2.2158,-2.2133,-2.2169,-2.2235,-2.2241,-2.216,-2.2159,-2.2158,0,-2.2083,-2.2107,-2.2133,-2.2137,-2.2143,-2.2155,-2.2157,-2.2162,-2.217,-2.218,-2.2185,-2.2198,-2.2204,-2.2214,-2.2207,-2.2191,-2.2236,-2.2213,-2.2233,-2.2234,-2.2243,-2.2242,-2.2309,-2.225,-2.2249,-2.2249,-2.2249,0,-2.2137,-2.2161,-2.2153,-2.2168,-2.2194,-2.2185,-2.2211,-2.2211,-2.2216,-2.2231,-2.2217,-2.2231,-2.2223,-2.2236,-2.2231,-2.2254,-2.2257,-2.2256,-2.2254,-2.2256,-2.2256,-2.2259,-2.2256,-2.2251,-2.2251,-2.225,-2.225,0,-2.2191,-2.2186,-2.2213,-2.2215,-2.2216,-2.2235,-2.2237,-2.2251,-2.2249,-2.2268,-2.2272,-2.2268,-2.2283,-2.2277,-2.2294,-2.229,-2.2319,-2.2314,-2.2317,-2.2315,-2.2335,-2.2333,-2.2406,-2.2414,-2.2351,-2.2352,-2.2352,0,-2.2225,-2.2242,-2.2246,-2.2255,-2.2259,-2.2274,-2.2282,-2.2274,-2.2283,-2.229,-2.2303,-2.2317,-2.2327,-2.2352,-2.235,-2.2362,-2.2356,-2.2381,-2.2358,-2.2359,-2.2355,-2.2353,-2.2354,-2.2385,-2.2386,-2.2387,-2.2387,0,-2.2285,-2.2282,-2.2294,-2.2305,-2.2315,-2.2324,-2.2331,-2.2339,-2.2332,-2.2342,-2.2357,-2.2365,-2.2381,-2.2394,-2.2405,-2.2407,-2.2395,-2.2395,-2.24,-2.2401,-2.2402,-2.24,-2.2328,-2.2393,-2.2392,-2.2392,-2.2391,-2.2391,-2.2329,-2.2343,-2.2348,-2.2361,-2.2366,-2.2373,-2.2386,-2.2385,-2.2397,-2.241,-2.2404,-2.2421,-2.2426,-2.2438,-2.2442,-2.2455,-2.2445,-2.2453,-2.2455,-2.2456,-2.2458,-2.2401,-2.2457,-2.2457,-2.2456,-2.2456,-2.2456,0,-2.2387,-2.2389,-2.2402,-2.2412,-2.2423,-2.2411,-2.2419,-2.2428,-2.2443,-2.2448,-2.2459,-2.2475,-2.2488,-2.2487,-2.2499,-2.2509,-2.2504,-2.2512,-2.251,-2.2511,-2.2467,-2.2461,-2.2516,-2.2516,-2.2516,-2.2516,-2.2516,-2.2516,-2.2418,-2.2441,-2.2439,-2.2463,-2.2465,-2.2481,-2.2486,-2.2492,-2.2496,-2.2515,-2.2526,-2.2525,-2.2528,-2.2539,-2.255,-2.2549,-2.2554,-2.2563,-2.2561,-2.252,-2.2514,-2.2508,-2.2502,-2.2565,-2.2565,-2.2603,-2.2603,-2.2604]}]]